owner,sensor,date,latitude,longitude,relative_humidity,qcFlag 
DISL,ioos:station:DISL:BSCA:1,2017-02-01T00:00:00Z,30.3288,-87.8293,87.6,1111122 
DISL,ioos:station:DISL:BSCA:1,2017-02-01T00:30:00Z,30.3288,-87.8293,85.1,1111122 
DISL,ioos:station:DISL:BSCA:1,2017-02-01T01:00:00Z,30.3288,-87.8293,85.4,1111122 
DISL,ioos:station:DISL:BSCA:1,2017-02-01T01:30:00Z,30.3288,-87.8293,85.9,1111122 
DISL,ioos:station:DISL:BSCA:1,2017-02-01T02:00:00Z,30.3288,-87.8293,89.0,1111122 
DISL,ioos:station:DISL:BSCA:1,2017-02-01T02:30:00Z,30.3288,-87.8293,88.8,1111122 
DISL,ioos:station:DISL:BSCA:1,2017-02-01T03:00:00Z,30.3288,-87.8293,85.4,1111122 
DISL,ioos:station:DISL:BSCA:1,2017-02-01T03:30:00Z,30.3288,-87.8293,85.8,1111122 
DISL,ioos:station:DISL:BSCA:1,2017-02-01T04:00:00Z,30.3288,-87.8293,86.8,1111122 
DISL,ioos:station:DISL:BSCA:1,2017-02-01T04:30:00Z,30.3288,-87.8293,84.6,1111122 
DISL,ioos:station:DISL:BSCA:1,2017-02-01T05:00:00Z,30.3288,-87.8293,83.6,1111122 
DISL,ioos:station:DISL:BSCA:1,2017-02-01T05:30:00Z,30.3288,-87.8293,84.8,1111122 
DISL,ioos:station:DISL:BSCA:1,2017-02-01T06:00:00Z,30.3288,-87.8293,88.0,1111122 
DISL,ioos:station:DISL:BSCA:1,2017-02-01T06:30:00Z,30.3288,-87.8293,87.9,1111122 
DISL,ioos:station:DISL:BSCA:1,2017-02-01T07:00:00Z,30.3288,-87.8293,89.6,1111122 
DISL,ioos:station:DISL:BSCA:1,2017-02-01T07:30:00Z,30.3288,-87.8293,91.0,1111122 
DISL,ioos:station:DISL:BSCA:1,2017-02-01T08:00:00Z,30.3288,-87.8293,93.1,1111122 
DISL,ioos:station:DISL:BSCA:1,2017-02-01T08:30:00Z,30.3288,-87.8293,94.1,1111122 
DISL,ioos:station:DISL:BSCA:1,2017-02-01T09:00:00Z,30.3288,-87.8293,92.1,1111122 
DISL,ioos:station:DISL:BSCA:1,2017-02-01T09:30:00Z,30.3288,-87.8293,93.7,1111122 
DISL,ioos:station:DISL:BSCA:1,2017-02-01T10:00:00Z,30.3288,-87.8293,95.8,1111122 
DISL,ioos:station:DISL:BSCA:1,2017-02-01T10:30:00Z,30.3288,-87.8293,97.3,1111122 
DISL,ioos:station:DISL:BSCA:1,2017-02-01T11:00:00Z,30.3288,-87.8293,96.1,1111122 
DISL,ioos:station:DISL:BSCA:1,2017-02-01T11:30:00Z,30.3288,-87.8293,98.2,1111122 
DISL,ioos:station:DISL:BSCA:1,2017-02-01T12:00:00Z,30.3288,-87.8293,99.8,1111122 
DISL,ioos:station:DISL:BSCA:1,2017-02-01T12:30:00Z,30.3288,-87.8293,99.0,1111122 
DISL,ioos:station:DISL:BSCA:1,2017-02-01T13:00:00Z,30.3288,-87.8293,100.0,1111122 
DISL,ioos:station:DISL:BSCA:1,2017-02-01T13:30:00Z,30.3288,-87.8293,98.6,1111122 
DISL,ioos:station:DISL:BSCA:1,2017-02-01T14:00:00Z,30.3288,-87.8293,98.2,1111122 
DISL,ioos:station:DISL:BSCA:1,2017-02-01T14:30:00Z,30.3288,-87.8293,93.3,1111122 
DISL,ioos:station:DISL:BSCA:1,2017-02-01T15:00:00Z,30.3288,-87.8293,87.7,1111122 
DISL,ioos:station:DISL:BSCA:1,2017-02-01T15:30:00Z,30.3288,-87.8293,84.8,1111122 
DISL,ioos:station:DISL:BSCA:1,2017-02-01T16:00:00Z,30.3288,-87.8293,75.56,1111122 
DISL,ioos:station:DISL:BSCA:1,2017-02-01T16:30:00Z,30.3288,-87.8293,72.43,1111122 
DISL,ioos:station:DISL:BSCA:1,2017-02-01T17:00:00Z,30.3288,-87.8293,76.72,1111122 
DISL,ioos:station:DISL:BSCA:1,2017-02-01T17:30:00Z,30.3288,-87.8293,76.79,1111122 
DISL,ioos:station:DISL:BSCA:1,2017-02-01T18:00:00Z,30.3288,-87.8293,72.38,1111122 
DISL,ioos:station:DISL:BSCA:1,2017-02-01T18:30:00Z,30.3288,-87.8293,72.07,1111122 
DISL,ioos:station:DISL:BSCA:1,2017-02-01T19:00:00Z,30.3288,-87.8293,70.67,1111122 
DISL,ioos:station:DISL:BSCA:1,2017-02-01T19:30:00Z,30.3288,-87.8293,68.67,1111122 
DISL,ioos:station:DISL:BSCA:1,2017-02-01T20:00:00Z,30.3288,-87.8293,69.04,1111122 
DISL,ioos:station:DISL:BSCA:1,2017-02-01T20:30:00Z,30.3288,-87.8293,71.76,1111122 
DISL,ioos:station:DISL:BSCA:1,2017-02-01T21:00:00Z,30.3288,-87.8293,74.07,1111122 
DISL,ioos:station:DISL:BSCA:1,2017-02-01T21:30:00Z,30.3288,-87.8293,75.84,1111122 
DISL,ioos:station:DISL:BSCA:1,2017-02-01T22:00:00Z,30.3288,-87.8293,76.86,1111122 
DISL,ioos:station:DISL:BSCA:1,2017-02-01T22:30:00Z,30.3288,-87.8293,76.86,1111122 
DISL,ioos:station:DISL:BSCA:1,2017-02-01T23:00:00Z,30.3288,-87.8293,80.8,1111122 
DISL,ioos:station:DISL:BSCA:1,2017-02-01T23:30:00Z,30.3288,-87.8293,82.8,1111122 
DISL,ioos:station:DISL:BSCA:1,2017-02-02T00:00:00Z,30.3288,-87.8293,85.1,1111122 
DISL,ioos:station:DISL:BSCA:1,2017-02-02T00:30:00Z,30.3288,-87.8293,86.5,1111122 
DISL,ioos:station:DISL:BSCA:1,2017-02-02T01:00:00Z,30.3288,-87.8293,87.2,1111122 
DISL,ioos:station:DISL:BSCA:1,2017-02-02T01:30:00Z,30.3288,-87.8293,89.7,1111122 
DISL,ioos:station:DISL:BSCA:1,2017-02-02T02:00:00Z,30.3288,-87.8293,90.9,1111122 
DISL,ioos:station:DISL:BSCA:1,2017-02-02T02:30:00Z,30.3288,-87.8293,92.1,1111122 
DISL,ioos:station:DISL:BSCA:1,2017-02-02T03:00:00Z,30.3288,-87.8293,92.7,1111122 
DISL,ioos:station:DISL:BSCA:1,2017-02-02T03:30:00Z,30.3288,-87.8293,88.9,1111122 
DISL,ioos:station:DISL:BSCA:1,2017-02-02T04:00:00Z,30.3288,-87.8293,91.1,1111122 
DISL,ioos:station:DISL:BSCA:1,2017-02-02T04:30:00Z,30.3288,-87.8293,94.2,1111122 
DISL,ioos:station:DISL:BSCA:1,2017-02-02T05:00:00Z,30.3288,-87.8293,92.4,1111122 
DISL,ioos:station:DISL:BSCA:1,2017-02-02T05:30:00Z,30.3288,-87.8293,93.3,1111122 
DISL,ioos:station:DISL:BSCA:1,2017-02-02T06:00:00Z,30.3288,-87.8293,96.3,1111122 
DISL,ioos:station:DISL:BSCA:1,2017-02-02T06:30:00Z,30.3288,-87.8293,97.1,1111122 
DISL,ioos:station:DISL:BSCA:1,2017-02-02T07:00:00Z,30.3288,-87.8293,98.8,1111122 
DISL,ioos:station:DISL:BSCA:1,2017-02-02T07:30:00Z,30.3288,-87.8293,100.0,1111122 
DISL,ioos:station:DISL:BSCA:1,2017-02-02T08:00:00Z,30.3288,-87.8293,100.0,1111122 
DISL,ioos:station:DISL:BSCA:1,2017-02-02T08:30:00Z,30.3288,-87.8293,100.0,1111122 
DISL,ioos:station:DISL:BSCA:1,2017-02-02T09:00:00Z,30.3288,-87.8293,100.0,1111122 
DISL,ioos:station:DISL:BSCA:1,2017-02-02T09:30:00Z,30.3288,-87.8293,100.0,1111122 
DISL,ioos:station:DISL:BSCA:1,2017-02-02T10:00:00Z,30.3288,-87.8293,100.0,1111122 
DISL,ioos:station:DISL:BSCA:1,2017-02-02T10:30:00Z,30.3288,-87.8293,100.0,1111122 
DISL,ioos:station:DISL:BSCA:1,2017-02-02T11:00:00Z,30.3288,-87.8293,100.0,1111122 
DISL,ioos:station:DISL:BSCA:1,2017-02-02T11:30:00Z,30.3288,-87.8293,100.0,1111122 
DISL,ioos:station:DISL:BSCA:1,2017-02-02T12:00:00Z,30.3288,-87.8293,100.0,1111122 
DISL,ioos:station:DISL:BSCA:1,2017-02-02T12:30:00Z,30.3288,-87.8293,100.0,1111122 
DISL,ioos:station:DISL:BSCA:1,2017-02-02T13:00:00Z,30.3288,-87.8293,100.0,1111122 
DISL,ioos:station:DISL:BSCA:1,2017-02-02T13:30:00Z,30.3288,-87.8293,100.0,1111122 
DISL,ioos:station:DISL:BSCA:1,2017-02-02T14:00:00Z,30.3288,-87.8293,100.0,1111122 
DISL,ioos:station:DISL:BSCA:1,2017-02-02T14:30:00Z,30.3288,-87.8293,100.0,1111122 
DISL,ioos:station:DISL:BSCA:1,2017-02-02T15:00:00Z,30.3288,-87.8293,100.0,1111122 
DISL,ioos:station:DISL:BSCA:1,2017-02-02T15:30:00Z,30.3288,-87.8293,98.8,1111122 
DISL,ioos:station:DISL:BSCA:1,2017-02-02T16:00:00Z,30.3288,-87.8293,98.6,1111122 
DISL,ioos:station:DISL:BSCA:1,2017-02-02T16:30:00Z,30.3288,-87.8293,93.7,1111122 
DISL,ioos:station:DISL:BSCA:1,2017-02-02T17:00:00Z,30.3288,-87.8293,88.1,1111122 
DISL,ioos:station:DISL:BSCA:1,2017-02-02T17:30:00Z,30.3288,-87.8293,88.7,1111122 
DISL,ioos:station:DISL:BSCA:1,2017-02-02T18:00:00Z,30.3288,-87.8293,89.7,1111122 
DISL,ioos:station:DISL:BSCA:1,2017-02-02T18:30:00Z,30.3288,-87.8293,88.4,1111122 
DISL,ioos:station:DISL:BSCA:1,2017-02-02T19:00:00Z,30.3288,-87.8293,87.1,1111122 
DISL,ioos:station:DISL:BSCA:1,2017-02-02T19:30:00Z,30.3288,-87.8293,81.3,1111122 
DISL,ioos:station:DISL:BSCA:1,2017-02-02T20:00:00Z,30.3288,-87.8293,78.45,1111122 
DISL,ioos:station:DISL:BSCA:1,2017-02-02T20:30:00Z,30.3288,-87.8293,76.38,1111122 
DISL,ioos:station:DISL:BSCA:1,2017-02-02T21:00:00Z,30.3288,-87.8293,78.85,1111122 
DISL,ioos:station:DISL:BSCA:1,2017-02-02T21:30:00Z,30.3288,-87.8293,75.91,1111122 
DISL,ioos:station:DISL:BSCA:1,2017-02-02T22:00:00Z,30.3288,-87.8293,80.7,1111122 
DISL,ioos:station:DISL:BSCA:1,2017-02-02T22:30:00Z,30.3288,-87.8293,84.4,1111122 
DISL,ioos:station:DISL:BSCA:1,2017-02-02T23:00:00Z,30.3288,-87.8293,85.2,1111122 
DISL,ioos:station:DISL:BSCA:1,2017-02-02T23:30:00Z,30.3288,-87.8293,87.4,1111122 
DISL,ioos:station:DISL:BSCA:1,2017-02-03T00:00:00Z,30.3288,-87.8293,88.6,1111122 
DISL,ioos:station:DISL:BSCA:1,2017-02-03T00:30:00Z,30.3288,-87.8293,92.0,1111122 
DISL,ioos:station:DISL:BSCA:1,2017-02-03T01:00:00Z,30.3288,-87.8293,93.2,1111122 
DISL,ioos:station:DISL:BSCA:1,2017-02-03T01:30:00Z,30.3288,-87.8293,94.7,1111122 
DISL,ioos:station:DISL:BSCA:1,2017-02-03T02:00:00Z,30.3288,-87.8293,92.8,1111122 
DISL,ioos:station:DISL:BSCA:1,2017-02-03T02:30:00Z,30.3288,-87.8293,94.0,1111122 
DISL,ioos:station:DISL:BSCA:1,2017-02-03T03:00:00Z,30.3288,-87.8293,94.9,1111122 
DISL,ioos:station:DISL:BSCA:1,2017-02-03T03:30:00Z,30.3288,-87.8293,95.6,1111122 
DISL,ioos:station:DISL:BSCA:1,2017-02-03T04:00:00Z,30.3288,-87.8293,95.5,1111122 
DISL,ioos:station:DISL:BSCA:1,2017-02-03T04:30:00Z,30.3288,-87.8293,96.2,1111122 
DISL,ioos:station:DISL:BSCA:1,2017-02-03T05:00:00Z,30.3288,-87.8293,98.1,1111122 
DISL,ioos:station:DISL:BSCA:1,2017-02-03T05:30:00Z,30.3288,-87.8293,97.2,1111122 
DISL,ioos:station:DISL:BSCA:1,2017-02-03T06:00:00Z,30.3288,-87.8293,97.5,1111122 
DISL,ioos:station:DISL:BSCA:1,2017-02-03T06:30:00Z,30.3288,-87.8293,99.2,1111122 
DISL,ioos:station:DISL:BSCA:1,2017-02-03T07:00:00Z,30.3288,-87.8293,99.9,1111122 
DISL,ioos:station:DISL:BSCA:1,2017-02-03T07:30:00Z,30.3288,-87.8293,100.0,1111122 
DISL,ioos:station:DISL:BSCA:1,2017-02-03T08:00:00Z,30.3288,-87.8293,100.0,1111122 
DISL,ioos:station:DISL:BSCA:1,2017-02-03T08:30:00Z,30.3288,-87.8293,100.0,1111122 
DISL,ioos:station:DISL:BSCA:1,2017-02-03T09:00:00Z,30.3288,-87.8293,100.0,1111122 
DISL,ioos:station:DISL:BSCA:1,2017-02-03T09:30:00Z,30.3288,-87.8293,100.0,1111122 
DISL,ioos:station:DISL:BSCA:1,2017-02-03T10:00:00Z,30.3288,-87.8293,100.0,1111122 
DISL,ioos:station:DISL:BSCA:1,2017-02-03T10:30:00Z,30.3288,-87.8293,100.0,1111122 
DISL,ioos:station:DISL:BSCA:1,2017-02-03T11:00:00Z,30.3288,-87.8293,100.0,1111122 
DISL,ioos:station:DISL:BSCA:1,2017-02-03T11:30:00Z,30.3288,-87.8293,100.0,1111122 
DISL,ioos:station:DISL:BSCA:1,2017-02-03T12:00:00Z,30.3288,-87.8293,100.0,1111122 
DISL,ioos:station:DISL:BSCA:1,2017-02-03T12:30:00Z,30.3288,-87.8293,100.0,1111122 
DISL,ioos:station:DISL:BSCA:1,2017-02-03T13:00:00Z,30.3288,-87.8293,100.0,1111122 
DISL,ioos:station:DISL:BSCA:1,2017-02-03T13:30:00Z,30.3288,-87.8293,100.0,1111122 
DISL,ioos:station:DISL:BSCA:1,2017-02-03T14:00:00Z,30.3288,-87.8293,100.0,1111122 
DISL,ioos:station:DISL:BSCA:1,2017-02-03T14:30:00Z,30.3288,-87.8293,100.0,1111122 
DISL,ioos:station:DISL:BSCA:1,2017-02-03T15:00:00Z,30.3288,-87.8293,100.0,1111122 
DISL,ioos:station:DISL:BSCA:1,2017-02-03T15:30:00Z,30.3288,-87.8293,100.0,1111122 
DISL,ioos:station:DISL:BSCA:1,2017-02-03T16:00:00Z,30.3288,-87.8293,100.0,1111122 
DISL,ioos:station:DISL:BSCA:1,2017-02-03T16:30:00Z,30.3288,-87.8293,100.0,1111122 
DISL,ioos:station:DISL:BSCA:1,2017-02-03T17:00:00Z,30.3288,-87.8293,100.0,1111122 
DISL,ioos:station:DISL:BSCA:1,2017-02-03T17:30:00Z,30.3288,-87.8293,100.0,1111122 
DISL,ioos:station:DISL:BSCA:1,2017-02-03T18:00:00Z,30.3288,-87.8293,100.0,1111122 
DISL,ioos:station:DISL:BSCA:1,2017-02-03T18:30:00Z,30.3288,-87.8293,98.9,1111122 
DISL,ioos:station:DISL:BSCA:1,2017-02-03T19:00:00Z,30.3288,-87.8293,98.0,1111122 
DISL,ioos:station:DISL:BSCA:1,2017-02-03T19:30:00Z,30.3288,-87.8293,91.6,1111122 
DISL,ioos:station:DISL:BSCA:1,2017-02-03T20:00:00Z,30.3288,-87.8293,87.9,1111122 
DISL,ioos:station:DISL:BSCA:1,2017-02-03T20:30:00Z,30.3288,-87.8293,84.2,1111122 
DISL,ioos:station:DISL:BSCA:1,2017-02-03T21:00:00Z,30.3288,-87.8293,86.8,1111122 
DISL,ioos:station:DISL:BSCA:1,2017-02-03T21:30:00Z,30.3288,-87.8293,85.1,1111122 
DISL,ioos:station:DISL:BSCA:1,2017-02-03T22:00:00Z,30.3288,-87.8293,82.9,1111122 
DISL,ioos:station:DISL:BSCA:1,2017-02-03T22:30:00Z,30.3288,-87.8293,83.8,1111122 
DISL,ioos:station:DISL:BSCA:1,2017-02-03T23:00:00Z,30.3288,-87.8293,80.9,1111122 
DISL,ioos:station:DISL:BSCA:1,2017-02-03T23:30:00Z,30.3288,-87.8293,83.0,1111122 
DISL,ioos:station:DISL:BSCA:1,2017-02-04T00:00:00Z,30.3288,-87.8293,84.9,1111122 
DISL,ioos:station:DISL:BSCA:1,2017-02-04T00:30:00Z,30.3288,-87.8293,83.8,1111122 
DISL,ioos:station:DISL:BSCA:1,2017-02-04T01:00:00Z,30.3288,-87.8293,83.8,1111122 
DISL,ioos:station:DISL:BSCA:1,2017-02-04T01:30:00Z,30.3288,-87.8293,86.7,1111122 
DISL,ioos:station:DISL:BSCA:1,2017-02-04T02:00:00Z,30.3288,-87.8293,88.4,1111122 
DISL,ioos:station:DISL:BSCA:1,2017-02-04T02:30:00Z,30.3288,-87.8293,88.0,1111122 
DISL,ioos:station:DISL:BSCA:1,2017-02-04T03:00:00Z,30.3288,-87.8293,86.0,1111122 
DISL,ioos:station:DISL:BSCA:1,2017-02-04T03:30:00Z,30.3288,-87.8293,79.34,1111122 
DISL,ioos:station:DISL:BSCA:1,2017-02-04T04:00:00Z,30.3288,-87.8293,74.86,1111122 
DISL,ioos:station:DISL:BSCA:1,2017-02-04T04:30:00Z,30.3288,-87.8293,72.22,1111122 
DISL,ioos:station:DISL:BSCA:1,2017-02-04T05:00:00Z,30.3288,-87.8293,73.85,1111122 
DISL,ioos:station:DISL:BSCA:1,2017-02-04T05:30:00Z,30.3288,-87.8293,64.35,1111122 
DISL,ioos:station:DISL:BSCA:1,2017-02-04T06:00:00Z,30.3288,-87.8293,64.01,1111122 
DISL,ioos:station:DISL:BSCA:1,2017-02-04T06:30:00Z,30.3288,-87.8293,66.52,1111122 
DISL,ioos:station:DISL:BSCA:1,2017-02-04T07:00:00Z,30.3288,-87.8293,65.3,1111122 
DISL,ioos:station:DISL:BSCA:1,2017-02-04T07:30:00Z,30.3288,-87.8293,65.64,1111122 
DISL,ioos:station:DISL:BSCA:1,2017-02-04T08:00:00Z,30.3288,-87.8293,69.11,1111122 
DISL,ioos:station:DISL:BSCA:1,2017-02-04T08:30:00Z,30.3288,-87.8293,67.14,1111122 
DISL,ioos:station:DISL:BSCA:1,2017-02-04T09:00:00Z,30.3288,-87.8293,60.3,1111122 
DISL,ioos:station:DISL:BSCA:1,2017-02-04T09:30:00Z,30.3288,-87.8293,64.0,1111122 
DISL,ioos:station:DISL:BSCA:1,2017-02-04T10:00:00Z,30.3288,-87.8293,63.35,1111122 
DISL,ioos:station:DISL:BSCA:1,2017-02-04T10:30:00Z,30.3288,-87.8293,58.19,1111122 
DISL,ioos:station:DISL:BSCA:1,2017-02-04T11:00:00Z,30.3288,-87.8293,56.19,1111122 
DISL,ioos:station:DISL:BSCA:1,2017-02-04T11:30:00Z,30.3288,-87.8293,58.6,1111122 
DISL,ioos:station:DISL:BSCA:1,2017-02-04T12:00:00Z,30.3288,-87.8293,63.73,1111122 
DISL,ioos:station:DISL:BSCA:1,2017-02-04T12:30:00Z,30.3288,-87.8293,63.84,1111122 
DISL,ioos:station:DISL:BSCA:1,2017-02-04T13:00:00Z,30.3288,-87.8293,61.91,1111122 
DISL,ioos:station:DISL:BSCA:1,2017-02-04T13:30:00Z,30.3288,-87.8293,60.18,1111122 
DISL,ioos:station:DISL:BSCA:1,2017-02-04T14:00:00Z,30.3288,-87.8293,52.91,1111122 
DISL,ioos:station:DISL:BSCA:1,2017-02-04T14:30:00Z,30.3288,-87.8293,48.02,1111122 
DISL,ioos:station:DISL:BSCA:1,2017-02-04T15:00:00Z,30.3288,-87.8293,48.8,1111122 
DISL,ioos:station:DISL:BSCA:1,2017-02-04T15:30:00Z,30.3288,-87.8293,47.81,1111122 
DISL,ioos:station:DISL:BSCA:1,2017-02-04T16:00:00Z,30.3288,-87.8293,43.49,1111122 
DISL,ioos:station:DISL:BSCA:1,2017-02-04T16:30:00Z,30.3288,-87.8293,43.79,1111122 
DISL,ioos:station:DISL:BSCA:1,2017-02-04T17:00:00Z,30.3288,-87.8293,41.15,1111122 
DISL,ioos:station:DISL:BSCA:1,2017-02-04T17:30:00Z,30.3288,-87.8293,42.76,1111122 
DISL,ioos:station:DISL:BSCA:1,2017-02-04T18:00:00Z,30.3288,-87.8293,42.08,1111122 
DISL,ioos:station:DISL:BSCA:1,2017-02-04T18:30:00Z,30.3288,-87.8293,37.47,1111122 
DISL,ioos:station:DISL:BSCA:1,2017-02-04T19:00:00Z,30.3288,-87.8293,58.29,1111122 
DISL,ioos:station:DISL:BSCA:1,2017-02-04T19:30:00Z,30.3288,-87.8293,59.14,1111122 
DISL,ioos:station:DISL:BSCA:1,2017-02-04T20:00:00Z,30.3288,-87.8293,54.93,1111122 
DISL,ioos:station:DISL:BSCA:1,2017-02-04T20:30:00Z,30.3288,-87.8293,55.44,1111122 
DISL,ioos:station:DISL:BSCA:1,2017-02-04T21:00:00Z,30.3288,-87.8293,51.07,1111122 
DISL,ioos:station:DISL:BSCA:1,2017-02-04T21:30:00Z,30.3288,-87.8293,51.2,1111122 
DISL,ioos:station:DISL:BSCA:1,2017-02-04T22:00:00Z,30.3288,-87.8293,51.41,1111122 
DISL,ioos:station:DISL:BSCA:1,2017-02-04T22:30:00Z,30.3288,-87.8293,47.54,1111122 
DISL,ioos:station:DISL:BSCA:1,2017-02-04T23:00:00Z,30.3288,-87.8293,48.61,1111122 
DISL,ioos:station:DISL:BSCA:1,2017-02-04T23:30:00Z,30.3288,-87.8293,52.28,1111122 
DISL,ioos:station:DISL:BSCA:1,2017-02-05T00:00:00Z,30.3288,-87.8293,55.24,1111122 
DISL,ioos:station:DISL:BSCA:1,2017-02-05T00:30:00Z,30.3288,-87.8293,53.71,1111122 
DISL,ioos:station:DISL:BSCA:1,2017-02-05T01:00:00Z,30.3288,-87.8293,50.86,1111122 
DISL,ioos:station:DISL:BSCA:1,2017-02-05T01:30:00Z,30.3288,-87.8293,53.24,1111122 
DISL,ioos:station:DISL:BSCA:1,2017-02-05T02:00:00Z,30.3288,-87.8293,65.55,1111122 
DISL,ioos:station:DISL:BSCA:1,2017-02-05T02:30:00Z,30.3288,-87.8293,75.22,1111122 
DISL,ioos:station:DISL:BSCA:1,2017-02-05T03:00:00Z,30.3288,-87.8293,77.34,1111122 
DISL,ioos:station:DISL:BSCA:1,2017-02-05T03:30:00Z,30.3288,-87.8293,73.27,1111122 
DISL,ioos:station:DISL:BSCA:1,2017-02-05T04:00:00Z,30.3288,-87.8293,78.53,1111122 
DISL,ioos:station:DISL:BSCA:1,2017-02-05T04:30:00Z,30.3288,-87.8293,76.93,1111122 
DISL,ioos:station:DISL:BSCA:1,2017-02-05T05:00:00Z,30.3288,-87.8293,76.53,1111122 
DISL,ioos:station:DISL:BSCA:1,2017-02-05T05:30:00Z,30.3288,-87.8293,82.0,1111122 
DISL,ioos:station:DISL:BSCA:1,2017-02-05T06:00:00Z,30.3288,-87.8293,79.55,1111122 
DISL,ioos:station:DISL:BSCA:1,2017-02-05T06:30:00Z,30.3288,-87.8293,77.75,1111122 
DISL,ioos:station:DISL:BSCA:1,2017-02-05T07:00:00Z,30.3288,-87.8293,75.24,1111122 
DISL,ioos:station:DISL:BSCA:1,2017-02-05T07:30:00Z,30.3288,-87.8293,73.41,1111122 
DISL,ioos:station:DISL:BSCA:1,2017-02-05T08:00:00Z,30.3288,-87.8293,73.13,1111122 
DISL,ioos:station:DISL:BSCA:1,2017-02-05T08:30:00Z,30.3288,-87.8293,76.12,1111122 
DISL,ioos:station:DISL:BSCA:1,2017-02-05T09:00:00Z,30.3288,-87.8293,76.59,1111122 
DISL,ioos:station:DISL:BSCA:1,2017-02-05T09:30:00Z,30.3288,-87.8293,73.85,1111122 
DISL,ioos:station:DISL:BSCA:1,2017-02-05T10:00:00Z,30.3288,-87.8293,74.97,1111122 
DISL,ioos:station:DISL:BSCA:1,2017-02-05T10:30:00Z,30.3288,-87.8293,76.29,1111122 
DISL,ioos:station:DISL:BSCA:1,2017-02-05T11:00:00Z,30.3288,-87.8293,78.77,1111122 
DISL,ioos:station:DISL:BSCA:1,2017-02-05T11:30:00Z,30.3288,-87.8293,77.61,1111122 
DISL,ioos:station:DISL:BSCA:1,2017-02-05T12:00:00Z,30.3288,-87.8293,78.73,1111122 
DISL,ioos:station:DISL:BSCA:1,2017-02-05T12:30:00Z,30.3288,-87.8293,85.4,1111122 
DISL,ioos:station:DISL:BSCA:1,2017-02-05T13:00:00Z,30.3288,-87.8293,87.9,1111122 
DISL,ioos:station:DISL:BSCA:1,2017-02-05T13:30:00Z,30.3288,-87.8293,89.4,1111122 
DISL,ioos:station:DISL:BSCA:1,2017-02-05T14:00:00Z,30.3288,-87.8293,84.4,1111122 
DISL,ioos:station:DISL:BSCA:1,2017-02-05T14:30:00Z,30.3288,-87.8293,85.2,1111122 
DISL,ioos:station:DISL:BSCA:1,2017-02-05T15:00:00Z,30.3288,-87.8293,80.2,1111122 
DISL,ioos:station:DISL:BSCA:1,2017-02-05T15:30:00Z,30.3288,-87.8293,78.7,1111122 
DISL,ioos:station:DISL:BSCA:1,2017-02-05T16:00:00Z,30.3288,-87.8293,77.36,1111122 
DISL,ioos:station:DISL:BSCA:1,2017-02-05T16:30:00Z,30.3288,-87.8293,78.58,1111122 
DISL,ioos:station:DISL:BSCA:1,2017-02-05T17:00:00Z,30.3288,-87.8293,76.08,1111122 
DISL,ioos:station:DISL:BSCA:1,2017-02-05T17:30:00Z,30.3288,-87.8293,78.08,1111122 
DISL,ioos:station:DISL:BSCA:1,2017-02-05T18:00:00Z,30.3288,-87.8293,76.01,1111122 
DISL,ioos:station:DISL:BSCA:1,2017-02-05T18:30:00Z,30.3288,-87.8293,75.84,1111122 
DISL,ioos:station:DISL:BSCA:1,2017-02-05T19:00:00Z,30.3288,-87.8293,78.31,1111122 
DISL,ioos:station:DISL:BSCA:1,2017-02-05T19:30:00Z,30.3288,-87.8293,77.67,1111122 
DISL,ioos:station:DISL:BSCA:1,2017-02-05T20:00:00Z,30.3288,-87.8293,79.09,1111122 
DISL,ioos:station:DISL:BSCA:1,2017-02-05T20:30:00Z,30.3288,-87.8293,75.13,1111122 
DISL,ioos:station:DISL:BSCA:1,2017-02-05T21:00:00Z,30.3288,-87.8293,73.2,1111122 
DISL,ioos:station:DISL:BSCA:1,2017-02-05T21:30:00Z,30.3288,-87.8293,72.99,1111122 
DISL,ioos:station:DISL:BSCA:1,2017-02-05T22:00:00Z,30.3288,-87.8293,74.79,1111122 
DISL,ioos:station:DISL:BSCA:1,2017-02-05T22:30:00Z,30.3288,-87.8293,79.3,1111122 
DISL,ioos:station:DISL:BSCA:1,2017-02-05T23:00:00Z,30.3288,-87.8293,80.8,1111122 
DISL,ioos:station:DISL:BSCA:1,2017-02-05T23:30:00Z,30.3288,-87.8293,83.9,1111122 
DISL,ioos:station:DISL:BSCA:1,2017-02-06T00:00:00Z,30.3288,-87.8293,84.7,1111122 
DISL,ioos:station:DISL:BSCA:1,2017-02-06T00:30:00Z,30.3288,-87.8293,83.6,1111122 
DISL,ioos:station:DISL:BSCA:1,2017-02-06T01:00:00Z,30.3288,-87.8293,81.5,1111122 
DISL,ioos:station:DISL:BSCA:1,2017-02-06T01:30:00Z,30.3288,-87.8293,87.4,1111122 
DISL,ioos:station:DISL:BSCA:1,2017-02-06T02:00:00Z,30.3288,-87.8293,94.1,1111122 
DISL,ioos:station:DISL:BSCA:1,2017-02-06T02:30:00Z,30.3288,-87.8293,94.1,1111122 
DISL,ioos:station:DISL:BSCA:1,2017-02-06T03:00:00Z,30.3288,-87.8293,93.8,1111122 
DISL,ioos:station:DISL:BSCA:1,2017-02-06T03:30:00Z,30.3288,-87.8293,94.6,1111122 
DISL,ioos:station:DISL:BSCA:1,2017-02-06T04:00:00Z,30.3288,-87.8293,97.0,1111122 
DISL,ioos:station:DISL:BSCA:1,2017-02-06T04:30:00Z,30.3288,-87.8293,97.6,1111122 
DISL,ioos:station:DISL:BSCA:1,2017-02-06T05:00:00Z,30.3288,-87.8293,98.0,1111122 
DISL,ioos:station:DISL:BSCA:1,2017-02-06T05:30:00Z,30.3288,-87.8293,98.9,1111122 
DISL,ioos:station:DISL:BSCA:1,2017-02-06T06:00:00Z,30.3288,-87.8293,99.0,1111122 
DISL,ioos:station:DISL:BSCA:1,2017-02-06T06:30:00Z,30.3288,-87.8293,98.8,1111122 
DISL,ioos:station:DISL:BSCA:1,2017-02-06T07:00:00Z,30.3288,-87.8293,100.0,1111122 
DISL,ioos:station:DISL:BSCA:1,2017-02-06T07:30:00Z,30.3288,-87.8293,100.0,1111122 
DISL,ioos:station:DISL:BSCA:1,2017-02-06T08:00:00Z,30.3288,-87.8293,100.0,1111122 
DISL,ioos:station:DISL:BSCA:1,2017-02-06T08:30:00Z,30.3288,-87.8293,100.0,1111122 
DISL,ioos:station:DISL:BSCA:1,2017-02-06T09:00:00Z,30.3288,-87.8293,100.0,1111122 
DISL,ioos:station:DISL:BSCA:1,2017-02-06T09:30:00Z,30.3288,-87.8293,100.0,1111122 
DISL,ioos:station:DISL:BSCA:1,2017-02-06T10:00:00Z,30.3288,-87.8293,100.0,1111122 
DISL,ioos:station:DISL:BSCA:1,2017-02-06T10:30:00Z,30.3288,-87.8293,100.0,1111122 
DISL,ioos:station:DISL:BSCA:1,2017-02-06T11:00:00Z,30.3288,-87.8293,100.0,1111122 
DISL,ioos:station:DISL:BSCA:1,2017-02-06T11:30:00Z,30.3288,-87.8293,100.0,1111122 
DISL,ioos:station:DISL:BSCA:1,2017-02-06T12:00:00Z,30.3288,-87.8293,100.0,1111122 
DISL,ioos:station:DISL:BSCA:1,2017-02-06T12:30:00Z,30.3288,-87.8293,100.0,1111122 
DISL,ioos:station:DISL:BSCA:1,2017-02-06T13:00:00Z,30.3288,-87.8293,100.0,1111122 
DISL,ioos:station:DISL:BSCA:1,2017-02-06T13:30:00Z,30.3288,-87.8293,100.0,1111122 
DISL,ioos:station:DISL:BSCA:1,2017-02-06T14:00:00Z,30.3288,-87.8293,100.0,1111122 
DISL,ioos:station:DISL:BSCA:1,2017-02-06T14:30:00Z,30.3288,-87.8293,100.0,1111122 
DISL,ioos:station:DISL:BSCA:1,2017-02-06T15:00:00Z,30.3288,-87.8293,100.0,1111122 
DISL,ioos:station:DISL:BSCA:1,2017-02-06T15:30:00Z,30.3288,-87.8293,100.0,1111122 
DISL,ioos:station:DISL:BSCA:1,2017-02-06T16:00:00Z,30.3288,-87.8293,99.8,1111122 
DISL,ioos:station:DISL:BSCA:1,2017-02-06T16:30:00Z,30.3288,-87.8293,97.1,1111122 
DISL,ioos:station:DISL:BSCA:1,2017-02-06T17:00:00Z,30.3288,-87.8293,96.2,1111122 
DISL,ioos:station:DISL:BSCA:1,2017-02-06T17:30:00Z,30.3288,-87.8293,94.0,1111122 
DISL,ioos:station:DISL:BSCA:1,2017-02-06T18:00:00Z,30.3288,-87.8293,92.3,1111122 
DISL,ioos:station:DISL:BSCA:1,2017-02-06T18:30:00Z,30.3288,-87.8293,92.8,1111122 
DISL,ioos:station:DISL:BSCA:1,2017-02-06T19:00:00Z,30.3288,-87.8293,92.3,1111122 
DISL,ioos:station:DISL:BSCA:1,2017-02-06T19:30:00Z,30.3288,-87.8293,91.8,1111122 
DISL,ioos:station:DISL:BSCA:1,2017-02-06T20:00:00Z,30.3288,-87.8293,93.1,1111122 
DISL,ioos:station:DISL:BSCA:1,2017-02-06T20:30:00Z,30.3288,-87.8293,92.9,1111122 
DISL,ioos:station:DISL:BSCA:1,2017-02-06T21:00:00Z,30.3288,-87.8293,94.1,1111122 
DISL,ioos:station:DISL:BSCA:1,2017-02-06T21:30:00Z,30.3288,-87.8293,94.1,1111122 
DISL,ioos:station:DISL:BSCA:1,2017-02-06T22:00:00Z,30.3288,-87.8293,94.4,1111122 
DISL,ioos:station:DISL:BSCA:1,2017-02-06T22:30:00Z,30.3288,-87.8293,94.7,1111122 
DISL,ioos:station:DISL:BSCA:1,2017-02-06T23:00:00Z,30.3288,-87.8293,95.5,1111122 
DISL,ioos:station:DISL:BSCA:1,2017-02-06T23:30:00Z,30.3288,-87.8293,96.5,1111122 
DISL,ioos:station:DISL:BSCA:1,2017-02-07T00:00:00Z,30.3288,-87.8293,97.3,1111122 
DISL,ioos:station:DISL:BSCA:1,2017-02-07T00:30:00Z,30.3288,-87.8293,97.9,1111122 